Find Starlink 11420

NORAD ID: 62591 Int'l Des: 2025-008 Owner: SPXS Country: US Constellation: starlink operational
LEOCIRCULAR

リアルタイム位置

3D地球を読み込み中...

Starlink 11420について

説明を読み込み中...

次回通過

Passes for default location (London). Set your location on the main map for personalized predictions.

高度履歴

Loading altitude history...

軌道要素

1 62591U 25008E 26124.45790383 .00227255 00000-0 17242-2 0 9993
2 62591 42.9990 150.1432 0000898 266.9845 93.0920 15.70872032 76066
Epoch: May 4, 2026 • Age: 7 hours

現在のステータス

高度 367.9 km
速度 7.69 km/s
衛星直下点 -41.02°S, 98.75°W
打ち上げ日 Jan 13, 2025
運用期間 1.3 years
タイプ internet

技術仕様

分類 Payload
質量 960.00 kg
乾燥質量 910.00 kg
総質量 960.00 kg
長さ 0.30 m
直径 4.10 m
スパン 29.00 m
形状 Box + pan
製造者 SPXS
バスタイプ Starlink V2MD
フェーズステータス In Orbit
所有者/国 SPXS/US

Most Searched